SCP
0 0 0 0 0 -0 -0 -0 -0 -0 -0 -0 -0 -0 -0 0 0 0 0 1 1 1 0 0 0 0 0 0 0 0 0 0 0 0 0 0 0 0 0 0 0 0 0
0 0 0 0 0 0 0 0 0 -0 -0 -0 -0 -0 -0 -0 0 0 0 1 1 1 1 0 0 0 0 0 0 0 0 0 0 0 0 0 0 0 0 0 0 0 0
0 0 0 0 0 0 0 0 0 0 0 -0 -0 -0 -0 0 0 0 0 1 1 1 1 0 0 0 0 0 0 0 0 0 0 0 0 0 0 0 0 0 0 0 0
0 0 0 0 0 0 0 0 0 0 0 0 0 -0 -0 0 0 0 0 0 0 1 1 0 0 0 0 0 0 0 0 0 0 0 0 0 0 0 0 0 0 0 0
0 0 0 0 0 0 0 0 0 0 0 0 0 0 0 0 0 0 0 0 0 0 0 0 0 0 0 0 0 0 0 0 0 0 0 0 0 0 0 0 0 0 0
0 0 0 0 0 0 0 0 0 0 0 0 0 0 0 0 0 0 0 0 0 0 0 0 0 0 0 0 0 0 0 0 0 0 0 0 0 0 0 0 0 0 -0
1 1 0 0 0 0 0 0 0 0 0 0 0 0 0 -0 0 0 0 0 0 0 0 0 0 0 0 0 0 0 0 0 0 0 0 0 0 0 0 0 0 0 -0
0 0 0 0 0 0 0 0 0 0 0 0 -0 -0 -0 -0 0 0 0 0 0 0 0 0 0 0 0 0 0 0 0 0 0 0 0 0 0 0 0 0 0 0 -0
-0 0 0 0 0 0 0 0 0 0 0 0 0 0 0 0 0 0 0 0 0 0 0 0 0 0 0 0 0 0 0 0 0 0 0 0 0 0 0 0 0 0 0
0 0 0 0 0 0 0 0 0 0 0 0 0 0 0 0 0 0 0 0 0 0 0 0 0 0 0 0 0 0 0 0 0 0 0 0 0 0 0 0 0 0 0
0 0 0 0 0 0 0 0 0 0 0 0 0 0 0 0 0 0 0 0 0 0 0 0 0 0 0 0 0 0 0 0 0 0 0 0 0 0 0 0 0 0 0
0 0 0 0 0 0 0 0 0 0 0 0 0 0 0 0 0 0 -0 0 0 0 0 0 0 0 0 0 0 0 0 0 0 0 0 0 0 0 0 0 0 0 0
0 0 0 0 0 0 0 0 0 0 0 0 0 0 0 0 -0 -0 -0 0 0 0 0 0 0 0 0 0 0 0 0 0 0 0 0 0 0 0 0 0 0 0 0
0 0 0 0 0 0 0 0 0 0 0 0 0 -0 0 -0 -0 0 -0 0 0 0 0 0 0 0 0 0 0 0 0 0 0 0 0 0 0 0 0 0 0 0 0
0 0 0 0 0 0 0 0 0 0 0 0 0 0 0 0 0 0 0 0 0 0 0 0 0 0 0 0 0 0 0 0 0 0 0 0 0 0 0 0 0 0 0
0 0 0 0 0 0 0 0 0 0 0 0 0 0 0 0 0 0 0 0 0 0 0 0 0 0 0 0 0 0 0 0 0 0 0 0 0 0 0 0 0 0 0
-0 0 0 0 0 0 0 0 0 0 0 0 0 0 0 0 0 0 0 0 0 0 0 0 0 0 0 0 0 0 0 0 0 0 0 0 0 0 0 0 0 0 0
-0 -0 0 0 0 0 0 0 0 0 0 0 0 0 0 0 0 0 0 0 0 0 0 0 0 0 0 0 0 0 0 0 0 0 0 0 0 0 0 0 0 0 0
0 0 -0 -0 -0 0 0 0 0 0 0 0 0 0 0 0 0 0 0 0 0 0 0 0 -0 0 0 0 0 0 0 0 0 0 0 0 0 0 -0 -0 0 0 0
0 0 -0 -0 0 0 0 0 0 0 0 0 0 0 0 0 0 0 0 -0 0 0 0 0 0 -0 0 0 0 0 0 0 0 0 0 0 0 0 0 0 0 0 0
0 -0 0 -0 -0 -0 0 0 0 0 0 0 0 0 0 0 0 0 0 0 0 0 0 0 0 0 0 0 0 0 0 0 0 0 0 0 0 0 0 0 0 0 0
0 0 -0 -0 -0 0 0 0 0 0 0 0 0 0 0 0 0 0 0 0 0 0 0 0 0 0 0 0 0 0 0 0 0 0 0 0 0 0 0 0 0 0 0
0 0 -0 -0 -0 0 0 0 0 0 0 0 0 0 0 0 0 0 0 0 0 0 0 0 0 -0 0 0 0 0 0 0 0 0 0 0 0 0 0 0 0 0 0
0 -0 -0 -0 0 0 0 0 0 0 0 0 0 0 0 0 0 0 0 0 0 0 0 0 0 0 0 0 0 0 0 0 0 0 0 0 0 0 0 0 0 0 0
0 0 0 0 0 0 0 0 0 0 0 0 0 0 0 0 0 0 0 0 0 0 0 0 0 0 0 0 0 0 0 0 0 0 0 0 0 0 0 0 0 0 0
0 0 0 0 0 0 0 0 0 0 0 0 0 0 0 0 0 0 0 0 0 0 0 0 0 0 0 0 0 0 0 0 0 0 0 0 0 0 0 0 0 0 0
Wind_Speed_500mb
32 28 23 21 15 16 19 20 20 18 17 16 20 25 22 25 25 27 21 19 20 18 16 15 20 19 15 13 16 18 16 17 16 14 16 17 13 9 8 7 5 3 2
38 37 32 27 26 23 21 24 27 30 30 27 22 24 28 30 30 32 32 20 18 21 22 18 19 20 15 14 17 21 20 18 21 21 18 13 11 8 7 7 5 3 2
30 32 33 34 33 31 30 32 35 37 42 44 40 36 35 38 38 46 43 32 27 26 26 25 19 17 17 15 16 21 24 24 22 19 16 13 11 8 6 6 7 6 4
44 45 45 42 36 39 38 39 40 45 45 47 44 47 42 46 51 50 44 39 36 34 28 24 24 20 20 17 15 16 20 21 20 17 16 13 10 8 5 5 8 6 4
58 62 55 50 45 47 49 50 47 47 50 46 49 54 44 53 56 49 48 47 46 41 33 26 28 26 23 20 16 14 14 15 17 17 16 13 11 8 4 4 8 7 5
44 44 47 56 64 53 56 53 50 50 50 49 49 50 50 49 44 46 48 52 52 51 41 35 33 35 27 25 17 13 12 13 15 16 15 12 11 9 4 4 7 7 5
59 57 56 46 51 54 65 60 54 45 45 48 50 59 54 54 48 48 55 57 52 58 52 47 42 43 38 28 22 14 12 12 15 15 15 12 12 9 6 5 6 8 6
49 48 52 56 59 59 58 57 48 40 32 28 45 55 52 57 46 46 35 42 48 55 54 51 51 49 48 40 27 21 20 15 15 17 17 15 14 11 9 7 8 8 7
42 43 53 64 66 49 41 67 63 48 42 33 48 59 45 49 67 66 65 45 36 54 57 65 57 60 56 51 44 31 27 25 22 22 21 21 19 17 15 12 11 10 10
28 26 29 31 52 66 67 75 78 75 63 62 42 30 16 42 57 57 64 61 45 46 52 46 51 57 55 59 52 43 37 31 27 27 29 27 27 26 22 19 17 16 13
18 15 21 24 30 44 53 58 52 48 43 39 37 38 38 54 66 56 51 31 25 33 31 37 46 51 52 50 50 51 49 44 42 38 36 36 33 32 31 28 24 22 20
17 11 7 11 21 26 32 39 33 30 31 39 45 57 53 48 41 44 61 55 47 25 28 36 45 42 48 45 45 51 50 42 37 50 49 41 41 40 39 38 33 31 26
21 18 12 10 9 11 17 30 38 44 57 62 71 65 57 55 56 55 60 74 51 37 30 34 39 46 42 38 40 37 33 38 55 53 55 45 46 49 47 45 41 39 34
24 20 18 15 12 14 14 7 14 27 41 43 46 54 53 56 45 52 67 63 52 51 52 51 49 50 51 40 52 48 53 61 63 58 54 57 55 53 50 50 49 45 42
26 24 22 20 18 13 11 16 15 12 12 16 28 37 42 43 38 48 48 49 48 36 47 50 37 38 39 39 42 54 54 64 67 74 60 50 54 55 54 50 50 51 50
28 24 20 20 21 22 22 16 9 7 12 16 17 15 17 22 26 37 40 40 43 42 48 49 42 35 32 30 38 42 45 38 46 67 75 50 47 47 48 59 54 52 54
39 35 33 29 25 22 20 21 21 25 29 28 17 18 22 16 14 20 22 22 23 23 27 31 34 37 39 36 40 41 39 28 40 45 63 79 63 53 51 54 55 56 56
43 41 42 43 36 27 23 21 19 20 23 24 22 22 23 19 17 16 17 16 19 21 26 31 36 38 37 32 34 40 39 40 37 37 43 52 56 45 43 43 47 53 50
41 42 48 48 47 44 32 26 26 26 28 30 33 37 37 37 34 23 24 27 24 21 23 28 34 34 33 30 36 31 35 37 36 36 46 52 58 50 53 53 52 53 47
36 34 36 46 56 52 30 28 28 28 26 28 32 32 34 35 34 29 36 37 32 25 23 25 25 23 25 21 26 27 27 31 39 41 30 43 51 60 53 47 45 49 46
29 33 42 52 57 44 28 27 25 24 24 24 28 30 26 23 22 21 23 26 27 26 22 20 19 25 23 23 20 23 28 28 25 44 47 51 48 65 42 40 43 42 45
27 35 44 53 51 43 27 24 25 22 18 24 29 29 28 23 20 16 17 16 21 29 24 17 20 20 23 21 21 25 27 26 27 22 26 40 45 47 48 51 47 43 41
31 37 41 48 50 44 33 26 24 23 23 20 27 26 28 27 26 23 16 14 17 22 26 31 44 42 41 29 27 26 28 28 28 22 25 23 31 41 39 43 33 31 31
41 43 43 45 41 36 34 27 21 23 25 27 28 25 23 27 29 27 23 16 14 14 14 16 20 24 30 35 35 40 37 38 39 33 26 29 19 24 19 20 26 30 27
45 35 34 39 30 26 23 28 23 22 23 25 26 26 24 24 25 24 24 26 23 21 24 27 31 34 36 37 37 44 44 40 44 40 27 25 24 24 22 18 19 20 22
26 29 32 30 22 22 26 30 31 31 30 29 28 29 31 32 30 28 31 32 35 35 34 32 35 36 31 26 29 36 36 44 45 43 33 25 23 20 19 23 19 21 22
Wind_Direction_500mb
267 262 255 233 214 217 227 237 249 255 267 268 267 259 269 289 288 279 290 268 255 271 293 325 333 323 305 282 249 234 230 233 241 259 263 265 276 286 289 293 303 326 317
271 270 264 253 241 237 244 258 264 268 271 270 265 258 265 278 288 289 292 264 264 275 295 301 321 327 314 284 258 239 238 238 240 247 258 256 258 263 290 316 323 311 289
276 274 274 270 266 260 261 268 269 274 278 267 265 262 262 274 280 284 282 275 275 281 299 287 300 318 326 309 275 249 242 241 240 244 245 243 247 265 293 325 342 342 333
274 274 275 278 277 272 274 275 280 282 286 286 281 271 274 280 284 282 266 270 272 275 286 292 286 294 309 314 295 264 247 240 234 229 228 232 244 257 278 343 354 353 340
275 272 271 280 277 269 275 276 276 280 282 286 283 283 284 283 289 295 268 265 261 264 272 281 279 280 292 296 294 273 252 238 228 222 223 225 234 239 266 347 358 359 3
276 286 281 272 268 265 265 272 276 283 286 286 289 291 287 289 293 295 291 274 262 255 260 268 269 270 277 284 283 274 252 235 230 228 224 222 226 230 241 314 347 357 5
275 273 276 276 269 267 259 263 268 278 286 288 292 286 289 293 302 304 295 288 274 252 255 260 261 263 260 273 272 261 258 239 233 230 229 229 226 231 241 281 331 349 4
288 282 276 278 272 264 266 264 271 260 261 299 317 308 305 299 295 301 296 278 267 259 257 256 259 254 256 250 263 267 254 252 244 236 232 235 237 236 243 267 302 337 355
325 320 280 275 272 283 287 293 266 278 266 275 289 295 300 297 296 287 287 255 268 275 266 266 255 251 249 247 246 244 242 245 249 245 241 243 246 249 252 261 282 310 338
345 336 317 297 268 258 255 252 255 265 274 269 248 251 283 301 289 291 294 263 261 260 272 267 251 250 257 250 237 241 242 242 248 244 245 247 250 251 256 263 271 284 305
0 356 330 285 271 254 247 248 272 283 277 226 246 265 256 278 282 271 272 262 265 278 263 265 260 249 245 240 230 237 247 249 252 250 249 245 245 248 252 259 264 272 283
26 22 359 324 299 285 279 268 283 273 252 241 261 284 257 263 265 265 271 292 293 279 257 264 260 246 241 239 236 234 237 243 262 263 255 248 246 243 246 254 257 261 266
19 17 359 333 303 302 291 275 274 267 256 262 276 273 258 270 269 269 274 282 278 274 263 267 265 254 249 250 244 247 244 263 269 276 254 255 260 245 237 243 249 255 258
10 4 9 16 4 335 329 326 271 280 270 274 279 271 268 274 264 279 285 279 274 276 276 273 275 269 263 268 244 267 264 259 269 264 259 252 262 256 245 241 247 248 252
6 358 348 340 351 359 323 4 16 358 342 321 306 299 280 277 272 275 279 283 275 273 277 277 283 270 262 260 260 254 247 257 265 260 261 244 243 249 243 249 245 245 247
12 6 355 347 338 338 326 309 317 352 19 18 8 356 329 306 293 283 283 279 275 270 270 275 283 289 284 265 254 253 255 267 249 240 253 250 238 243 256 262 253 245 244
24 17 9 357 344 338 334 336 333 305 293 283 290 331 351 358 320 309 302 299 296 290 285 291 287 285 281 274 273 260 253 266 264 242 238 247 251 245 254 249 247 248 244
20 14 9 9 5 346 334 322 325 327 326 319 314 295 305 327 339 334 327 311 309 309 300 304 301 294 291 288 275 263 259 246 243 242 238 235 229 231 249 249 247 239 237
2 5 3 359 359 352 336 318 314 314 319 315 314 315 306 295 302 324 314 317 311 307 307 305 307 307 296 286 281 276 269 244 226 240 234 234 231 224 235 246 255 244 240
347 349 351 350 344 340 325 317 307 310 316 329 333 321 314 307 299 299 287 300 307 296 305 308 316 329 331 319 295 301 284 264 239 241 251 267 241 228 242 245 247 244 242
333 338 340 338 338 338 323 309 303 309 319 331 338 337 325 322 312 281 285 276 272 287 291 303 335 341 335 339 331 314 307 297 266 239 243 245 243 230 242 227 242 248 244
318 323 328 335 335 331 319 306 302 300 310 317 325 329 331 317 319 322 277 297 293 274 276 293 293 309 325 335 330 327 332 331 296 273 245 250 246 238 228 236 245 242 245
315 320 327 328 324 322 317 310 303 305 297 301 306 315 326 318 316 321 307 288 298 307 299 290 283 284 297 308 308 309 308 305 305 302 307 268 246 241 235 233 236 241 247
318 323 327 331 330 321 323 329 315 299 294 298 296 294 306 319 329 319 311 288 281 301 315 321 320 309 294 288 290 281 283 291 290 294 299 283 270 253 233 237 236 235 228
309 315 326 333 332 328 329 325 326 326 315 310 303 287 292 302 314 320 305 297 294 294 294 302 305 301 294 287 282 276 272 266 274 278 285 280 265 253 241 233 229 217 213
306 312 316 320 319 315 313 308 313 315 315 313 312 309 296 291 295 300 310 312 308 304 301 297 306 300 293 280 277 269 264 254 252 264 273 257 265 265 260 245 234 229 218
Wind_Speed_850mb
32 28 23 21 15 16 19 20 20 18 17 16 20 25 22 25 25 27 21 19 20 18 16 15 20 19 15 13 16 18 16 17 16 14 16 17 13 9 8 7 5 3 2
38 37 32 27 26 23 21 24 27 30 30 27 22 24 28 30 30 32 32 20 18 21 22 18 19 20 15 14 17 21 20 18 21 21 18 13 11 8 7 7 5 3 2
30 32 33 34 33 31 30 32 35 37 42 44 40 36 35 38 38 46 43 32 27 26 26 25 19 17 17 15 16 21 24 24 22 19 16 13 11 8 6 6 7 6 4
44 45 45 42 36 39 38 39 40 45 45 47 44 47 42 46 51 50 44 39 36 34 28 24 24 20 20 17 15 16 20 21 20 17 16 13 10 8 5 5 8 6 4
58 62 55 50 45 47 49 50 47 47 50 46 49 54 44 53 56 49 48 47 46 41 33 26 28 26 23 20 16 14 14 15 17 17 16 13 11 8 4 4 8 7 5
44 44 47 56 64 53 56 53 50 50 50 49 49 50 50 49 44 46 48 52 52 51 41 35 33 35 27 25 17 13 12 13 15 16 15 12 11 9 4 4 7 7 5
59 57 56 46 51 54 65 60 54 45 45 48 50 59 54 54 48 48 55 57 52 58 52 47 42 43 38 28 22 14 12 12 15 15 15 12 12 9 6 5 6 8 6
49 48 52 56 59 59 58 57 48 40 32 28 45 55 52 57 46 46 35 42 48 55 54 51 51 49 48 40 27 21 20 15 15 17 17 15 14 11 9 7 8 8 7
42 43 53 64 66 49 41 67 63 48 42 33 48 59 45 49 67 66 65 45 36 54 57 65 57 60 56 51 44 31 27 25 22 22 21 21 19 17 15 12 11 10 10
28 26 29 31 52 66 67 75 78 75 63 62 42 30 16 42 57 57 64 61 45 46 52 46 51 57 55 59 52 43 37 31 27 27 29 27 27 26 22 19 17 16 13
18 15 21 24 30 44 53 58 52 48 43 39 37 38 38 54 66 56 51 31 25 33 31 37 46 51 52 50 50 51 49 44 42 38 36 36 33 32 31 28 24 22 20
17 11 7 11 21 26 32 39 33 30 31 39 45 57 53 48 41 44 61 55 47 25 28 36 45 42 48 45 45 51 50 42 37 50 49 41 41 40 39 38 33 31 26
21 18 12 10 9 11 17 30 38 44 57 62 71 65 57 55 56 55 60 74 51 37 30 34 39 46 42 38 40 37 33 38 55 53 55 45 46 49 47 45 41 39 34
24 20 18 15 12 14 14 7 14 27 41 43 46 54 53 56 45 52 67 63 52 51 52 51 49 50 51 40 52 48 53 61 63 58 54 57 55 53 50 50 49 45 42
26 24 22 20 18 13 11 16 15 12 12 16 28 37 42 43 38 48 48 49 48 36 47 50 37 38 39 39 42 54 54 64 67 74 60 50 54 55 54 50 50 51 50
28 24 20 20 21 22 22 16 9 7 12 16 17 15 17 22 26 37 40 40 43 42 48 49 42 35 32 30 38 42 45 38 46 67 75 50 47 47 48 59 54 52 54
39 35 33 29 25 22 20 21 21 25 29 28 17 18 22 16 14 20 22 22 23 23 27 31 34 37 39 36 40 41 39 28 40 45 63 79 63 53 51 54 55 56 56
43 41 42 43 36 27 23 21 19 20 23 24 22 22 23 19 17 16 17 16 19 21 26 31 36 38 37 32 34 40 39 40 37 37 43 52 56 45 43 43 47 53 50
41 42 48 48 47 44 32 26 26 26 28 30 33 37 37 37 34 23 24 27 24 21 23 28 34 34 33 30 36 31 35 37 36 36 46 52 58 50 53 53 52 53 47
36 34 36 46 56 52 30 28 28 28 26 28 32 32 34 35 34 29 36 37 32 25 23 25 25 23 25 21 26 27 27 31 39 41 30 43 51 60 53 47 45 49 46
29 33 42 52 57 44 28 27 25 24 24 24 28 30 26 23 22 21 23 26 27 26 22 20 19 25 23 23 20 23 28 28 25 44 47 51 48 65 42 40 43 42 45
27 35 44 53 51 43 27 24 25 22 18 24 29 29 28 23 20 16 17 16 21 29 24 17 20 20 23 21 21 25 27 26 27 22 26 40 45 47 48 51 47 43 41
31 37 41 48 50 44 33 26 24 23 23 20 27 26 28 27 26 23 16 14 17 22 26 31 44 42 41 29 27 26 28 28 28 22 25 23 31 41 39 43 33 31 31
41 43 43 45 41 36 34 27 21 23 25 27 28 25 23 27 29 27 23 16 14 14 14 16 20 24 30 35 35 40 37 38 39 33 26 29 19 24 19 20 26 30 27
45 35 34 39 30 26 23 28 23 22 23 25 26 26 24 24 25 24 24 26 23 21 24 27 31 34 36 37 37 44 44 40 44 40 27 25 24 24 22 18 19 20 22
26 29 32 30 22 22 26 30 31 31 30 29 28 29 31 32 30 28 31 32 35 35 34 32 35 36 31 26 29 36 36 44 45 43 33 25 23 20 19 23 19 21 22
Wind_Direction_850mb
267 262 255 233 214 217 227 237 249 255 267 268 267 259 269 289 288 279 290 268 255 271 293 325 333 323 305 282 249 234 230 233 241 259 263 265 276 286 289 293 303 326 317
271 270 264 253 241 237 244 258 264 268 271 270 265 258 265 278 288 289 292 264 264 275 295 301 321 327 314 284 258 239 238 238 240 247 258 256 258 263 290 316 323 311 289
276 274 274 270 266 260 261 268 269 274 278 267 265 262 262 274 280 284 282 275 275 281 299 287 300 318 326 309 275 249 242 241 240 244 245 243 247 265 293 325 342 342 333
274 274 275 278 277 272 274 275 280 282 286 286 281 271 274 280 284 282 266 270 272 275 286 292 286 294 309 314 295 264 247 240 234 229 228 232 244 257 278 343 354 353 340
275 272 271 280 277 269 275 276 276 280 282 286 283 283 284 283 289 295 268 265 261 264 272 281 279 280 292 296 294 273 252 238 228 222 223 225 234 239 266 347 358 359 3
276 286 281 272 268 265 265 272 276 283 286 286 289 291 287 289 293 295 291 274 262 255 260 268 269 270 277 284 283 274 252 235 230 228 224 222 226 230 241 314 347 357 5
275 273 276 276 269 267 259 263 268 278 286 288 292 286 289 293 302 304 295 288 274 252 255 260 261 263 260 273 272 261 258 239 233 230 229 229 226 231 241 281 331 349 4
288 282 276 278 272 264 266 264 271 260 261 299 317 308 305 299 295 301 296 278 267 259 257 256 259 254 256 250 263 267 254 252 244 236 232 235 237 236 243 267 302 337 355
325 320 280 275 272 283 287 293 266 278 266 275 289 295 300 297 296 287 287 255 268 275 266 266 255 251 249 247 246 244 242 245 249 245 241 243 246 249 252 261 282 310 338
345 336 317 297 268 258 255 252 255 265 274 269 248 251 283 301 289 291 294 263 261 260 272 267 251 250 257 250 237 241 242 242 248 244 245 247 250 251 256 263 271 284 305
0 356 330 285 271 254 247 248 272 283 277 226 246 265 256 278 282 271 272 262 265 278 263 265 260 249 245 240 230 237 247 249 252 250 249 245 245 248 252 259 264 272 283
26 22 359 324 299 285 279 268 283 273 252 241 261 284 257 263 265 265 271 292 293 279 257 264 260 246 241 239 236 234 237 243 262 263 255 248 246 243 246 254 257 261 266
19 17 359 333 303 302 291 275 274 267 256 262 276 273 258 270 269 269 274 282 278 274 263 267 265 254 249 250 244 247 244 263 269 276 254 255 260 245 237 243 249 255 258
10 4 9 16 4 335 329 326 271 280 270 274 279 271 268 274 264 279 285 279 274 276 276 273 275 269 263 268 244 267 264 259 269 264 259 252 262 256 245 241 247 248 252
6 358 348 340 351 359 323 4 16 358 342 321 306 299 280 277 272 275 279 283 275 273 277 277 283 270 262 260 260 254 247 257 265 260 261 244 243 249 243 249 245 245 247
12 6 355 347 338 338 326 309 317 352 19 18 8 356 329 306 293 283 283 279 275 270 270 275 283 289 284 265 254 253 255 267 249 240 253 250 238 243 256 262 253 245 244
24 17 9 357 344 338 334 336 333 305 293 283 290 331 351 358 320 309 302 299 296 290 285 291 287 285 281 274 273 260 253 266 264 242 238 247 251 245 254 249 247 248 244
20 14 9 9 5 346 334 322 325 327 326 319 314 295 305 327 339 334 327 311 309 309 300 304 301 294 291 288 275 263 259 246 243 242 238 235 229 231 249 249 247 239 237
2 5 3 359 359 352 336 318 314 314 319 315 314 315 306 295 302 324 314 317 311 307 307 305 307 307 296 286 281 276 269 244 226 240 234 234 231 224 235 246 255 244 240
347 349 351 350 344 340 325 317 307 310 316 329 333 321 314 307 299 299 287 300 307 296 305 308 316 329 331 319 295 301 284 264 239 241 251 267 241 228 242 245 247 244 242
333 338 340 338 338 338 323 309 303 309 319 331 338 337 325 322 312 281 285 276 272 287 291 303 335 341 335 339 331 314 307 297 266 239 243 245 243 230 242 227 242 248 244
318 323 328 335 335 331 319 306 302 300 310 317 325 329 331 317 319 322 277 297 293 274 276 293 293 309 325 335 330 327 332 331 296 273 245 250 246 238 228 236 245 242 245
315 320 327 328 324 322 317 310 303 305 297 301 306 315 326 318 316 321 307 288 298 307 299 290 283 284 297 308 308 309 308 305 305 302 307 268 246 241 235 233 236 241 247
318 323 327 331 330 321 323 329 315 299 294 298 296 294 306 319 329 319 311 288 281 301 315 321 320 309 294 288 290 281 283 291 290 294 299 283 270 253 233 237 236 235 228
309 315 326 333 332 328 329 325 326 326 315 310 303 287 292 302 314 320 305 297 294 294 294 302 305 301 294 287 282 276 272 266 274 278 285 280 265 253 241 233 229 217 213
306 312 316 320 319 315 313 308 313 315 315 313 312 309 296 291 295 300 310 312 308 304 301 297 306 300 293 280 277 269 264 254 252 264 273 257 265 265 260 245 234 229 218